metlocid,date_time,avg_wspd,std_wspd,min_wspd,max_wspd,n_wspd,n_comments
VAAM,11/1/94,6.488613854,2.864416594,0,11.4,404,52
VAAM,12/1/94,5.282264858,2.792162139,0,11.4,2137,44
VAAM,1/1/95,4.974760146,2.868098845,0.05,12.87,271,743
VAAM,2/1/95,5.41067165,3.983175196,0.01,18.76,670,672
VAAM,3/1/95,2.884513885,4.087515551,0.01,18.28,720,744
VAAM,4/1/95,3.038505581,4.236022447,0.01,18.57,716,720
VAAM,5/1/95,3.113618782,4.203148212,0.01,19.71,724,744
VAAM,6/1/95,5.542903224,5.734879332,0.01,23.29,713,720
VAAM,7/1/95,3.99524966,4.351178815,0.01,21.49,741,744
VAAM,8/1/95,4.77283198,5.374766178,0.02,19.97,738,744
VAAM,9/1/95,3.238278334,4.11206424,0.01,16.78,697,720
VAAM,10/1/95,2.932941969,3.226003802,0.01,15.42,741,744
VAAM,11/1/95,6.519907542,3.130323405,0.01,16.08,1406,492
VAAM,12/1/95,5.272365593,2.645326429,0,11.84,2976,0
VAAM,1/1/96,5.097600939,2.790073893,0,12.6,2972,0
VAAM,2/1/96,3.953448278,2.787086317,0,11.2,2784,4
VAAM,3/1/96,4.649126348,5.487743341,0,23.1,2976,32
VAAM,4/1/96,4.404305562,4.257515139,0,19.3,2880,4
VAAM,5/1/96,1.056720431,1.16038034,0,10.7,2976,112
VAAM,6/1/96,3.356944441,4.361658421,0,20.5,2880,10
VAAM,7/1/96,5.227486563,5.027789394,0,23.6,2976,4
VAAM,8/1/96,4.304435484,4.602124518,0,19.2,2976,39
VAAM,9/1/96,2.50732639,3.646876286,0,18.9,2880,24
VAAM,10/1/96,3.699395164,3.449406674,0,14.6,2976,15
VAAM,11/1/96,5.810038207,3.447747543,0,21,2879,1
VAAM,12/1/96,5.463340054,2.763497383,0,12.7,2976,0
VAAM,1/1/97,5.069590056,2.787467633,0,12,2976,2
VAAM,2/1/97,4.5234747,3.115769507,0,12.6,2688,1
VAAM,3/1/97,2.392137099,2.811839078,0,15.4,2976,17
VAAM,4/1/97,2.393819448,3.134136252,0,18.2,2880,57
VAAM,5/1/97,4.372815857,4.655989932,0,18.3,2976,23
VAAM,6/1/97,5.902412865,5.665355386,0,20.5,1492,1388
VAAM,7/1/97,,,,,0,2976
VAAM,8/1/97,,,,,0,2976
VAAM,9/1/97,,,,,0,2880
VAAM,10/1/97,,,,,0,2730
VAAM,11/1/97,,,,,0,811
VAAM,12/1/97,,,,,0,2976
VAAM,1/1/98,5.064841993,2.699800244,0.1,10.9,1772,1203
VAAM,2/1/98,5.670647324,3.906385661,0,17.4,2688,0
VAAM,3/1/98,1.506821239,1.945574729,0,14.1,2976,15
VAAM,4/1/98,2.592812502,3.701339903,0,19.2,2880,9
VAAM,5/1/98,3.119690859,3.345410804,0,15.9,2976,1
VAAM,6/1/98,3.847916668,4.936020238,0,21.8,2880,12
VAAM,7/1/98,3.581350808,4.294459015,0,22.1,2976,2
VAAM,8/1/98,2.867103494,3.754237021,0,20.9,2976,22
VAAM,9/1/98,1.657361112,1.834665237,0,13.4,2880,32
VAAM,10/1/98,4.758534946,3.973758592,0,18.6,2976,2
VAAM,11/1/98,5.775555563,3.28108662,0.1,15.6,2880,0
VAAM,12/1/98,7.119657262,3.195631471,0.4,17.4,2976,0
VAAM,1/1/99,5.23260504,2.60033217,0.2,11.9,2975,0
VAAM,2/1/99,4.371986611,3.221537396,0,14.3,2688,0
VAAM,3/1/99,1.233649933,0.995565654,0,9.4,2948,4
VAAM,4/1/99,1.737152779,1.843304556,0,15.3,2880,4
VAAM,5/1/99,2.652352149,3.125576976,0,17.3,2976,5
VAAM,6/1/99,2.478055556,2.919726845,0,17.8,2880,9
VAAM,7/1/99,4.129536288,4.00928643,0,20,2976,1
VAAM,8/1/99,3.095396506,3.489342576,0,17.4,2976,2
VAAM,9/1/99,2.811145834,2.993860348,0,16.9,2880,2
VAAM,10/1/99,5.259005381,4.318954855,0,21.8,2976,0
VAAM,11/1/99,6.266979167,3.035691919,0.2,14.4,2880,2880
VAAM,12/1/99,6.070967744,3.059971529,0.1,14.6,2976,2976
VAAM,1/1/00,5.47668011,3.054791616,0.1,13.6,2976,2976
VAAM,2/1/00,6.147413796,3.809636658,0,16.4,2784,2784
VAAM,3/1/00,2.571068544,3.482451505,0,19.7,2976,2976
VAAM,4/1/00,1.859756946,1.736919645,0,13.6,2880,2880
VAAM,5/1/00,2.670967744,3.400638185,0,16.4,2976,2976
VAAM,6/1/00,2.956701395,3.43802324,0,21.7,2880,2880
VAAM,7/1/00,5.731888437,5.075425842,0,22.1,2976,2976
VAAM,8/1/00,5.245430109,5.242123436,0,20.3,2976,2976
VAAM,9/1/00,6.168958339,5.652049491,0,19.8,2880,2880
VAAM,10/1/00,3.282862903,2.817812847,0,14.4,2976,2976
VAAM,11/1/00,6.156770838,3.055106251,0.1,15.8,2880,905
VAAM,12/1/00,6.109139787,2.926105702,0,13,2976,0
VAAM,1/1/01,5.84233871,2.849799956,0,13.1,2976,0
VAAM,2/1/01,4.319233633,3.076573651,0,12.7,2688,46
VAAM,3/1/01,3.372110214,4.279931088,0,20.6,2976,169
VAAM,4/1/01,3.794109394,5.079510249,0,20.9,2852,425
VAAM,5/1/01,5.228158598,5.558039079,0,22.5,2976,22
VAAM,6/1/01,3.954375003,3.891800105,0,18,2880,45
VAAM,7/1/01,3.888541667,4.437584301,0,18.9,2976,89
VAAM,8/1/01,2.300537632,3.39729596,0,21.7,2976,251
VAAM,9/1/01,2.968333334,3.6951482,0,18.8,2880,281
VAAM,10/1/01,4.290658604,3.928900049,0,19.6,2976,255
VAAM,11/1/01,5.480125092,3.082401147,0,13.8,2878,66
VAAM,12/1/01,6.455981185,3.20780527,0.1,15.5,2976,0
VAAM,1/1/02,5.918581995,2.993340647,0.1,16.1,2976,0
VAAM,2/1/02,4.676525299,3.099432026,0,15.5,2688,2
VAAM,3/1/02,3.579401886,3.602971117,0,17.5,2976,5
VAAM,4/1/02,2.949791668,3.508881204,0.1,16.2,2880,0
VAAM,5/1/02,3.692473124,3.658556064,0,16.6,2976,2
VAAM,6/1/02,3.496666666,4.482220984,0,20.9,2880,11
VAAM,7/1/02,4.361794358,4.619590226,0,19.3,2976,3
VAAM,8/1/02,3.284206987,3.475928156,0,17.7,2976,3
VAAM,9/1/02,2.947569445,3.106305868,0,13.3,2880,9
VAAM,10/1/02,2.606384409,2.872085221,0,14.8,2976,31
VAAM,11/1/02,5.410590277,3.681922034,0,17.3,2880,2
VAAM,12/1/02,6.449630379,2.701797697,0,13.1,2976,1
VAAM,1/1/03,5.315927423,2.52839904,0,12.5,2976,1
VAAM,2/1/03,4.131287206,2.673190361,0,13.1,2688,1
VAAM,3/1/03,2.434643817,2.65024611,0,13.5,2976,9
VAAM,4/1/03,1.619687502,1.900833785,0,16.1,2880,11
VAAM,5/1/03,5.469590054,4.706525341,0,19.5,2976,19
VAAM,6/1/03,2.353402777,3.684039273,0,18.7,2880,10
VAAM,7/1/03,4.607594088,4.573918332,0,20.4,2976,2
VAAM,8/1/03,3.29717742,3.9926957,0,20.9,2976,3
VAAM,9/1/03,4.181403509,4.497820743,0,16.9,855,2028
VAAM,10/1/03,,,,,0,2976
VAAM,11/1/03,,,,,0,2880
VAAM,12/1/03,,,,,0,2975
VAAM,1/1/04,4.991148773,3.121310924,0.1,11.4,531,2445
VAAM,2/1/04,3.698239946,2.75843341,0,11.4,2784,5
VAAM,3/1/04,1.48918011,2.952427947,0,20.6,2976,63
VAAM,4/1/04,2.286493054,2.365723198,0,13.8,2880,2
VAAM,5/1/04,3.291935486,3.994556234,0,20,2976,15
VAAM,6/1/04,5.914583336,5.750136223,0,23.6,2880,3
VAAM,7/1/04,3.587701611,4.273710525,0,19.1,2976,17
VAAM,8/1/04,6.903763444,5.844541174,0,22.8,2976,2
VAAM,9/1/04,3.411458339,3.600719801,0,17.3,2880,16
VAAM,10/1/04,3.506552418,3.658313992,0,20.3,2976,25
VAAM,11/1/04,6.234444443,3.297744293,0.1,15.7,2880,0
VAAM,12/1/04,5.743529415,2.915032631,0,14.4,2975,5
VAAM,1/1/05,5.354771506,2.812179528,0,13.8,2976,1
VAAM,2/1/05,3.671949406,3.008359836,0.1,13.5,2688,0
VAAM,3/1/05,1.437130378,1.674421219,0,13.2,2976,9
VAAM,4/1/05,1.91159722,1.756477871,0,12.8,2880,13
VAAM,5/1/05,4.363071236,4.324818801,0,19.5,2976,3
VAAM,6/1/05,5.25666667,5.58292851,0,24.2,2880,4
VAAM,7/1/05,3.719018818,5.044343317,0,23.9,2976,14
VAAM,8/1/05,4.642775538,5.017589389,0,20.9,2976,2
VAAM,9/1/05,3.4115625,3.976451391,0,19.4,2880,7
VAAM,10/1/05,5.723286294,4.564946324,0,21,2976,2
VAAM,11/1/05,6.65829862,3.142893193,0,14.5,2880,1
VAAM,12/1/05,5.986055114,2.735463422,0,12,2976,1
VAAM,1/1/06,5.388676082,2.728994552,0,12,2976,1
VAAM,2/1/06,4.091517858,3.180343345,0,15.2,2688,53
VAAM,3/1/06,3.367741937,4.253937106,0,22.5,2976,30
VAAM,4/1/06,2.506562499,3.537779318,0,23.4,2880,7
VAAM,5/1/06,3.042876347,3.783438882,0,23.2,2976,8
VAAM,6/1/06,4.095173611,3.789568274,0,15.2,2880,1
VAAM,7/1/06,3.511391127,4.557334613,0,22.5,2976,7
VAAM,8/1/06,4.134879038,4.457581957,0,19.6,2976,20
VAAM,9/1/06,3.193159721,3.255903619,0,15.5,2880,16
VAAM,10/1/06,2.521169357,3.025888656,0,16.1,2976,13
VAAM,11/1/06,4.302812503,3.105415903,0,12.7,2880,21
VAAM,12/1/06,6.063709677,2.687617462,0.2,13.5,2976,0
VAAM,1/1/07,6.284240591,2.967687662,0.1,13.5,2976,0
VAAM,2/1/07,4.426971727,2.893850532,0,13.6,2688,5
VAAM,3/1/07,3.549361563,3.60294832,0,15.9,2976,4
VAAM,4/1/07,4.028368054,4.75635595,0,21.7,2880,10
VAAM,5/1/07,3.724193547,4.870156,0,22.6,2976,24
VAAM,6/1/07,4.374826387,4.148676846,0,23.1,2880,10
VAAM,7/1/07,4.266263449,4.360888553,0.1,17.5,2976,0
VAAM,8/1/07,3.891465053,4.696615021,0,25.1,2976,24
VAAM,9/1/07,3.711666669,3.822234722,0,19,2880,3
VAAM,10/1/07,4.74122984,4.146913441,0,21.8,2976,8
VAAM,11/1/07,5.076249999,2.783909977,0,12.7,2880,1
VAAM,12/1/07,5.824361558,2.650784174,0.2,13.1,2976,0
VAAM,1/1/08,5.571370969,2.553209273,0.1,11.9,2976,0
VAAM,2/1/08,4.157291666,2.590857914,0.1,10.8,2784,0
VAAM,3/1/08,2.89018817,3.62065936,0,17.3,2976,26
VAAM,4/1/08,2.326493058,3.072910957,0,22.3,2880,80
VAAM,5/1/08,2.790120964,3.602623197,0,17.7,2976,5
VAAM,6/1/08,4.168020837,4.484807624,0,22.9,2880,3
VAAM,7/1/08,4.009307796,4.751234502,0,22.8,2976,12
VAAM,8/1/08,4.179301074,5.017795723,0,22.3,2976,11
VAAM,9/1/08,6.69163195,4.84504339,0.2,21.9,2880,0
VAAM,10/1/08,3.029872309,2.753685032,0,13,2976,18
VAAM,11/1/08,6.343645833,3.548423705,0.2,16.1,2880,0
VAAM,12/1/08,6.66439139,2.968125262,0.1,17.2,2974,1
VAAM,1/1/09,5.909038983,2.898286191,0.2,13.9,2976,0
VAAM,2/1/09,3.978050595,2.707644351,0.1,13.5,2688,0
VAAM,3/1/09,2.286122311,2.94610164,0,15.8,2976,3
VAAM,4/1/09,3.505208332,3.57135675,0,16.3,2880,1
VAAM,5/1/09,2.24573253,3.546806162,0,16.1,2976,1044
VAAM,6/1/09,0.077673611,1.004158497,0,18.1,2880,2861
VAAM,7/1/09,4.239247309,4.562849468,0,20.5,2976,224
VAAM,8/1/09,4.35950941,5.238966187,0,22.8,2976,4
VAAM,9/1/09,5.268333332,5.562428295,0,22,2880,260
VAAM,10/1/09,3.619119626,3.409020274,0,18.8,2976,4
VAAM,11/1/09,5.642033633,3.073120807,0,14.4,2498,383
VAAM,12/1/09,6.347807765,3.164646392,0.1,13.5,1186,1790
VAAM,1/1/10,6.106225244,2.82305983,0.1,11.9,1767,1209
VAAM,2/1/10,6.194314378,3.091708075,0.1,12.7,299,2389
VAAM,3/1/10,3.312500024,2.398844562,0.2,8.3,40,2936
VAAM,4/1/10,,,,,0,2880
VAAM,5/1/10,2.253046593,2.175044606,0.1,12.6,837,2139
VAAM,6/1/10,3.48247822,3.26022733,0.1,14,1033,1847
VAAM,7/1/10,9.578178356,3.719683283,1.3,17.3,527,2449
VAAM,8/1/10,10.75919119,3.64622857,0.6,22,816,2160
VAAM,9/1/10,9.027586199,5.171768336,0.4,20.6,406,2474
VAAM,10/1/10,5.286785016,3.730257743,0.1,16.3,2028,948
VAAM,11/1/10,6.885073442,3.450857701,0,17.4,2519,362
VAAM,12/1/10,6.240793017,2.972241767,0.3,16.1,2976,0
VAAM,1/1/11,5.059979839,2.631062262,0.1,11.5,2976,0
VAAM,2/1/11,3.755952381,2.642559462,0,13.2,2688,4
VAAM,3/1/11,2.72214382,3.654653798,0,20.2,2976,34
VAAM,4/1/11,3.555624997,4.256137047,0,20.4,2880,185
VAAM,5/1/11,2.526041669,2.945497736,0,18,2976,12
VAAM,6/1/11,3.409791667,3.256667827,0,15.9,2880,12
VAAM,7/1/11,4.298487911,4.739869994,0,18.6,2976,17
VAAM,8/1/11,4.061559139,4.167315089,0,21.6,2976,7
VAAM,9/1/11,4.177430556,4.238957947,0,20,2880,4
VAAM,10/1/11,5.392338709,4.453522648,0,20.2,2976,9
VAAM,11/1/11,5.105486114,2.796201053,0.1,14.4,2880,0
VAAM,12/1/11,5.646779239,2.845641,0.2,13,1599,0
VAAM,1/1/12,5.885085783,3.046611706,0.21,14.5,2448,0
VAAM,2/1/12,5.394762932,3.852632863,0.11,17.37,2784,0
VAAM,3/1/12,3.044163309,3.327142869,0.01,18.58,2976,1
VAAM,4/1/12,2.464288192,3.148302701,0.04,18.68,2880,1
VAAM,5/1/12,6.304126342,5.784756357,0,20.44,2976,4
VAAM,6/1/12,4.418496527,5.286993684,0,23.79,2880,5
VAAM,7/1/12,3.082231182,3.56387048,0,17.82,2976,8
VAAM,8/1/12,6.116229836,5.657299007,0.03,24.79,2976,2
VAAM,9/1/12,2.793781251,3.294827912,0,15.35,2880,16
VAAM,10/1/12,3.859680777,3.492070005,0,16.84,2976,6
VAAM,11/1/12,5.098531252,3.013072507,0,13.03,2880,8
VAAM,12/1/12,5.362795701,2.791390591,0,11.72,2976,2
VAAM,1/1/13,5.48980175,2.754731155,0.14,12.51,2976,0
VAAM,2/1/13,4.28530134,2.72205089,0.02,12.6,2688,1
VAAM,3/1/13,2.168961694,2.325213304,0,15.3,2976,4
VAAM,4/1/13,1.848784726,2.684253271,0,16.4,2880,35
VAAM,5/1/13,3.564187799,4.092626862,0,19.8,2918,21
VAAM,6/1/13,2.337951389,2.778458909,0,14.8,2880,21
VAAM,7/1/13,2.160853498,2.841142479,0,15.7,2976,52
VAAM,8/1/13,4.032090053,4.316763698,0,18.1,2976,16
VAAM,9/1/13,4.387266614,4.618292699,0,22.2,2678,2
VAAM,10/1/13,3.278662635,3.332910764,0,19.1,2976,17
VAAM,11/1/13,5.098680558,3.063289514,0,13.5,2880,1
VAAM,12/1/13,6.239885755,2.848574794,0,13.8,2976,1
VAAM,1/1/14,5.857166391,3.052555385,0.01,16.02,2975,2975
VAAM,2/1/14,5.535677083,3.364548156,0.02,16.37,2688,2688
VAAM,3/1/14,3.459331317,3.874310554,0,17.06,2976,2976
VAAM,4/1/14,4.908736114,4.961835143,0.02,24.24,2880,2880
VAAM,5/1/14,3.649062497,3.99077678,0,19.24,2976,2976
VAAM,6/1/14,3.248486111,3.699496039,0.02,21.19,2880,2880
VAAM,7/1/14,2.536959,3.450690446,0,21.41,2976,2976
VAAM,8/1/14,4.698195562,4.166600621,0,19.84,2976,2976
VAAM,9/1/14,4.491781248,4.511962976,0,18.19,2880,2880
VAAM,10/1/14,4.693198925,3.707319497,0,19.06,2976,2976
VAAM,11/1/14,4.703333335,2.969433166,0,14.74,2880,2880
VAAM,12/1/14,5.818742861,2.61039827,0,11.54,2975,2975
VAAM,1/1/15,4.795050397,2.806081529,0.05,12.84,2976,2976
VAAM,2/1/15,4.42198661,2.967699631,0,13.55,2688,2688
VAAM,3/1/15,2.265255379,2.687496566,0,16.06,2976,2976
VAAM,4/1/15,2.439079859,2.601360132,0,14.84,2880,2880
VAAM,5/1/15,2.493434138,3.736435825,0,21.21,2976,2976
VAAM,6/1/15,3.787763885,5.011431492,0,21.71,2880,2880
VAAM,7/1/15,3.823786962,4.362341208,0,20.51,2976,2976
VAAM,8/1/15,4.315161288,4.29392994,0,21.48,2976,2976
VAAM,9/1/15,3.784531246,3.809039712,0.01,19.13,2880,2880
VAAM,10/1/15,5.192988407,3.826478712,0,18.15,2242,2242
VAAM,12/1/15,6.24092872,2.915407995,0.18,16.32,2918,0
VAAM,1/1/16,5.964320526,2.407814634,0.25,10.82,1354,0
VAAM,2/1/16,3.806916417,2.989487743,0.05,13.1,2309,0
VAAM,3/1/16,2.117620968,2.983820549,0,17.87,2976,0
VAAM,4/1/16,0.821105485,0.406876962,0,2.5,1185,0
VAAM,5/1/16,4.815838227,5.512130615,0,25.29,2213,0
VAAM,6/1/16,2.770499999,3.350207027,0,18.15,2880,0
VAAM,7/1/16,2.526080937,3.524467125,0,19.36,2817,0
VAAM,8/1/16,2.491311583,3.101175648,0,18.89,2943,0
VAAM,9/1/16,2.979805554,3.563996269,0.01,18.91,2880,0
VAAM,10/1/16,3.227896504,3.099051076,0,17.36,2976,0
VAAM,11/1/16,6.766072921,3.90531311,0.02,18.95,2880,0
VAAM,12/1/16,6.363188403,3.170140771,0.05,18.13,2967,0
VAAM,1/1/17,6.269553087,3.224757416,0.09,15.94,2976,0
VAAM,2/1/17,6.277682295,3.7041672,0.03,18.36,2688,0
VAAM,3/1/17,2.385386426,2.663094277,0,15.96,2976,0
VAAM,4/1/17,2.758517359,4.038822359,0,24.48,2880,0
VAAM,5/1/17,4.992940191,5.153876599,0.01,23.84,2976,0
VAAM,6/1/17,3.195930557,3.597489379,0,24.63,2880,0
VAAM,7/1/17,4.237983873,4.596028187,0.01,23.58,2976,0
VAAM,8/1/17,4.060500674,4.249248794,0,25.72,2976,0
VAAM,9/1/17,3.737427081,4.723346322,0,22.76,2880,0
VAAM,10/1/17,4.499784947,3.657712272,0,17.4,2976,0
VAAM,11/1/17,6.0563507,3.779269461,0.16,19.9,2880,0
VAAM,12/1/17,6.273455963,3.142066534,0.32,15.15,2963,0
VAAM,1/1/18,5.584075945,3.134505018,0.07,13.33,2976,0
VAAM,2/1/18,4.792005203,3.863669022,0,17.93,2688,0
VAAM,3/1/18,2.872526881,2.68398566,0,14.26,2976,0
VAAM,4/1/18,5.469652774,6.414907655,0,24.63,2880,0
VAAM,5/1/18,2.310950938,2.66613994,0,15.09,2976,0
VAAM,6/1/18,3.604496531,3.832316935,0,24.86,2880,0
VAAM,7/1/18,6.091864914,6.360733812,0,24.57,2976,0
VAAM,8/1/18,3.422752016,4.190430075,0,20.02,2976,0
VAAM,9/1/18,5.242329864,5.210496513,0,24.06,2880,0
VAAM,10/1/18,5.43091398,3.643698839,0.03,16.86,2976,0
VAAM,11/1/18,5.969711798,3.595775843,0,18.78,2880,0
VAAM,12/1/18,5.865477473,2.906385495,0.07,14.01,2974,0
VAAM,1/1/19,6.07771505,3.091610478,0.14,13.2,2976,0
VAAM,2/1/19,4.994538693,3.247796796,0.05,15.5,2688,0
VAAM,3/1/19,2.935688843,2.92737232,0,16.49,2976,0
VAAM,4/1/19,2.98802778,3.286617315,0,15.85,2880,0
VAAM,5/1/19,3.380631721,3.951835192,0,19.34,2976,0
VAAM,6/1/19,5.731090278,5.344619692,0.03,23.29,2880,0
VAAM,7/1/19,5.212735218,5.507082489,0.01,25.76,2976,0
VAAM,8/1/19,3.75544691,3.989834799,0,18.99,2976,0
VAAM,9/1/19,4.161833335,4.164354308,0.04,20.16,2880,0
VAAM,10/1/19,3.430984544,3.220070381,0,14.53,2976,0
VAAM,11/1/19,6.12901389,3.540900375,0.09,18.91,2880,0
VAAM,12/1/19,6.403205654,3.321094642,0.24,14.6,2971,0
VAAM,1/1/20,6.109917333,3.070008647,0.202,12.66,2976,0
VAAM,2/1/20,4.690301721,3.34433509,0.045,15.25,2784,0
VAAM,3/1/20,3.715115925,4.810514358,0,23.38,2976,0
VAAM,4/1/20,4.960747224,5.317157262,0.081,28.81,2880,0
VAAM,5/1/20,2.344311154,2.482470611,0,18.13,2976,0
VAAM,6/1/20,5.077021184,4.956161719,0,20.94,2880,0
VAAM,7/1/20,5.024228164,5.147842616,0.029,22.99,2976,0
VAAM,8/1/20,4.351835685,4.219238182,0,17.76,2976,0
VAAM,9/1/20,3.724171875,4.136260735,0,17.15,2880,0
VAAM,10/1/20,4.897372317,4.290079662,0,18.59,2976,0
VAAM,11/1/20,5.513819793,3.21481322,0.023,13.61,2880,0
VAAM,12/1/20,6.26746808,2.981261881,0.136,13.22,2976,0
VAAM,1/1/21,6.338381051,3.232703199,0.024,15.03,2976,0
VAAM,2/1/21,5.141019711,3.816370308,0.012,16.81,2688,0
VAAM,3/1/21,3.309584347,3.953452377,0,20.6,2976,0
VAAM,4/1/21,1.650889932,1.704410348,0,12.67,2880,0
VAAM,5/1/21,3.500478158,4.210116055,0.016,19.25,2976,0
VAAM,6/1/21,5.515118407,5.473182145,0.092,22.63,2880,0
VAAM,7/1/21,3.439005039,3.715816116,0,18.47,2976,0
VAAM,8/1/21,4.665260082,5.670516525,0,23.54,2976,0
VAAM,9/1/21,4.494414583,4.940743196,0,22.41,2880,0
VAAM,10/1/21,7.142741604,5.616818753,0.005,24.42,2976,0
VAAM,11/1/21,5.575078821,3.331154327,0,16.5,2880,0
VAAM,12/1/21,6.726053427,3.077099801,0.293,14.62,2976,0
VAAM,1/1/22,5.560292057,2.94629905,0.073,13.37,2972,0
VAAM,2/1/22,5.399746282,3.413706815,0.034,17.94,2688,0
VAAM,3/1/22,4.908962707,5.131661602,0,21.93,2976,0
VAAM,4/1/22,2.699809725,4.319988754,0,25.75,2880,0
VAAM,5/1/22,6.197158603,6.08175175,0.21,29.17,2976,0
VAAM,6/1/22,3.326182638,3.773074381,0,18.88,2880,0
VAAM,7/1/22,7.845667337,6.744937093,0.037,25.8,2976,0
VAAM,8/1/22,4.546929433,4.870751367,0.044,21.78,2976,0
VAAM,9/1/22,5.045847574,5.300481958,0.069,21.63,2880,0
VAAM,10/1/22,5.441290318,4.78159475,0.034,27.02,2976,0
VAAM,11/1/22,6.261743403,3.617922933,0.092,16.85,2880,0
VAAM,12/1/22,6.892997486,3.163352673,0.294,15.64,1196,0